DELTA 1 DEB, 14564

Orbit data source: Space-Track

DELTA 1 DEB, 14564 is space debris in LEO originally from a launch on Thu, 14 Jul 1977 UTC launched from the Air Force Eastern Test Range (AFETR). Debris objects in space refer to the collection of defunct objects orbiting the Earth. Examples of debris include non-operational satellites, rocket bodies, and fragments generated from explosions, collisions, or faulty payload assembly.

Loading next visibility...
Identifier
14564, 1977-065FS
Orbit
LEO
Country
Flag of USUS
Related business
Manufacturer
Unknown
Mission
Spacecraft
Bus & Motor
Unknown
Mass
Unknown
Launch date (UTC)
1977-07-14 (48 years ago)
Launch vehicle
Unknown
Launch site
Air Force Eastern Test Range (AFETR)
Object type
Payload
Rocket body
Debris
Shape & HBR
Unknown shape, 0.1 m
Radar Cross Section
Medium (>0.1 m² and <1 m²)

Expand to show TLE details & history
Last TLE update: 13 hours ago

TLE from 13 hours ago
0 DELTA 1 DEB
1 14564U 77065FS  25350.29778536  .00003236  00000-0  27635-2 0  9996
2 14564  28.7045 354.7037 0732075 254.7180  97.1338 13.02230041 47321
Epoch: 2025-12-16T07:08Z
TLE epoch observation values (Epoch: 2025-12-16T07:08:48.655Z)
Latitude
Longitude
162.31696°
Altitude
1,360.74 km
Speed
7.129 km/s
True Right ascension
23h 38m 48s
True Declination
0° 00' 00"
Sunlit
Object was in daylight at epoch
Visualization orbit readout
Latitude
Unknown
Longitude
Unknown
Altitude
Unknown
Speed
Unknown
Apparent Right ascension
Unknown
Apparent Declination
Unknown
Sunlit
N/A
Visualization observer readout
Local Sidereal Time
19:12:57
Azimuth
Unknown
Elevation
Unknown
Doppler factor
Unknown
Orbital elements
Apogee altitude
1,816.138 km
Perigee altitude
698.214 km
Semi-major axis
7,635.313 km
Eccentricity
0.07321
Inclination
28.7045°
RAAN
354.7037°
Arg. of periapsis
254.718°
True anomaly
105.33618°
Mean anomaly
97.1338°
Eccentric anomaly
101.24772°
Mean motion
3.25314 °/min
Orbital period
110.66 mins
BSTAR
0.0027635
Loading maneuver chart data...
Computing Atmospheric mass density...
Loading historical data...
Loading historical data...
Loading historical data...
Loading historical data...
Loading historical data...
Loading historical data...
Loading historical data...

Documentation

Showing up to 5 results
|